2018-097A (43751 NORAD) Tracking and Keplerian Element Data

This shows tracking and keplerian element data for the satellite.

Feedback or suggestion? Click here.




ElementValue
Catalog43751
Name2018-097A
Epoch Orbit372
Epoch Day364.10148142
Epoch Year2018
RAAN114.3759
Inclination82.5132
Eccentricity0.001554
Argument of Perigee222.3563
Mean Anonmoly137.6373
Mean Motion12.43535934
Decay Rate8.3E-07
L11 43751U 18097A 18364.10148142 .00000083 00000-0 52050-3 0 9994
L22 43751 82.5132 114.3759 0015540 222.3563 137.6373 12.43535934 3722

Live tracking and technical data element details for 2018-097A (NORAD 43751). 2018-097A can be tracked NOW for your location showing map with azimuth and elevation plus other details from your city location.

Track the satellite on the map from your city or location and see movement details for azimuth, elevation, latitude, longitude, range, height, and movement on the map or in text.







IsCatalogInMostPopularTable: catalog: 43751, numindb: 53
Update: records affected: 1



GetName: 43751 2018-097A

Hit Count: updated at: Wed, 24 Apr 2019 17:56:56 GMT